Content
SEND FEEDBACK

Daily
Averages
Monthly
Summary
Germany

WUNSTORF, GERMANY


Home > Europe > Germany
Elevation: 230 feet     Latitude: 52 27N     Longitude: 009 26E

WEATHER
 
SELECT A DAY
Number of Records: 29,177;   Date Range: 11/3/98 - 9/20/14
 
SHARE

PRINT THIS DATA

[ ← Previous Day ]
WEATHER ALMANAC - JANUARY 23, 2013
[ Next Day → ]
[ °C ]   °F
Weather ElementAverageHighLow
Temperature21.1 °F24.8 °F (1:20 pm)17.6 °F (8:20 pm)
Dewpoint16.4 °F17.6 °F (1:20 pm)15.8 °F (1:20 am)
Humidity82.5 %93 % (8:20 pm)74 % (11:20 am)
Barometer29.85 in29.89 in (11:20 pm)29.80 in (1:20 am)
Wind Speed4.9 mph9.2 mph (2:20 am)
Weather ElementAverage
Visibility5.8 mi
Wind DirectionESE (128.7 °)

Weather ElementTotal
Precipitation---
Heating Degree Days43.8 (Base 65)
Averaged from 23 records on January 23, 2013
WEATHER CONDITIONS BREAKOUT
WIND DIRECTION BREAKOUT
WEATHER BY HOUR - JANUARY 23, 2013
[ °C ]   °F
Local TimeTemperatureDewpointHumidityBarometerVisibilityWind DirectionWind SpeedGust SpeedPrecipitationEventsConditions
1:20 AM19.4 °F15.8 °F86 %29.80 in6.2 miENE (70°)6.9 mphOvercast
2:20 AM21.2 °F15.8 °F80 %29.83 in6.2 miENE (70°)9.2 mphOvercast
3:20 AM21.2 °F15.8 °F80 %29.83 in6.2 miEast (80°)6.9 mphOvercast
4:20 AM19.4 °F15.8 °F86 %29.83 in6.2 miENE (70°)6.9 mphOvercast
5:20 AM19.4 °F15.8 °F86 %29.83 in6.2 miEast (80°)6.9 mphOvercast
6:20 AM19.4 °F15.8 °F86 %29.83 in6.2 miENE (70°)8.1 mphOvercast
7:20 AM19.4 °F15.8 °F86 %29.83 in6.2 miENE (70°)6.9 mphOvercast
8:20 AM19.4 °F15.8 °F86 %29.83 in5.0 miENE (70°)6.9 mphOvercast
9:20 AM21.2 °F15.8 °F80 %29.83 in5.0 miENE (70°)5.8 mphOvercast
10:20 AM21.2 °F15.8 °F80 %29.86 in6.2 miENE (60°)6.9 mphOvercast
11:20 AM23.0 °F15.8 °F74 %29.86 in6.2 miENE (70°)5.8 mphOvercast
12:20 PM23.0 °F15.8 °F74 %29.86 in6.2 miENE (70°)3.5 mphMostly Cloudy
1:20 PM24.8 °F17.6 °F74 %29.86 in6.2 miNE (40°)2.3 mphMostly Cloudy
2:20 PM24.8 °F17.6 °F74 %29.86 in6.2 miNorth (10°)4.6 mphMostly Cloudy
3:20 PM24.8 °F17.6 °F74 %29.86 in6.2 miNorth (10°)4.6 mphMostly Cloudy
4:20 PM23.0 °F17.6 °F80 %29.86 in6.2 miNNE (20°)4.6 mphMostly Cloudy
5:20 PM23.0 °F17.6 °F80 %29.86 in6.2 miNNW (330°)3.5 mphMostly Cloudy
6:20 PM23.0 °F17.6 °F80 %29.86 in6.2 miNW (320°)2.3 mphMostly Cloudy
7:20 PM19.4 °F15.8 °F86 %29.86 in6.2 miWNW (290°)3.5 mphMostly Cloudy
8:20 PM17.6 °F15.8 °F93 %29.86 in5.6 miWNW (290°)1.2 mphMostly Cloudy
9:20 PM17.6 °F15.8 °F93 %29.86 in3.7 miWNW (290°)3.5 mphMostly Cloudy
10:20 PM19.4 °F17.6 °F93 %29.86 in5.0 miWest (270°)1.2 mphMostly Cloudy
11:20 PM21.2 °F17.6 °F86 %29.89 in3.1 miWSW (240°)1.2 mphMostly Cloudy
Hourly data recorded from ETNW, located miles away from Wunstorf, Germany







STORIES FROM OUR PARTNERS